TimePDT,TemperatureF,Dew PointF,Humidity,Sea Level PressureIn,VisibilityMPH,Wind Direction,Wind SpeedMPH,Gust SpeedMPH,PrecipitationIn,Events,Conditions,WindDirDegrees,DateUTC
12:53 AM,54.0,51.1,90,30.09,10.0,West,3.5,-,N/A,,Overcast,260,2013-07-25 07:53:00
1:53 AM,54.0,52.0,93,30.09,10.0,Calm,Calm,-,N/A,,Overcast,0,2013-07-25 08:53:00
2:53 AM,54.0,52.0,93,30.10,10.0,Calm,Calm,-,N/A,,Overcast,0,2013-07-25 09:53:00
3:53 AM,54.0,51.1,90,30.11,10.0,NW,3.5,-,N/A,,Overcast,310,2013-07-25 10:53:00
4:53 AM,53.1,52.0,96,30.11,10.0,WNW,3.5,-,N/A,,Overcast,300,2013-07-25 11:53:00
5:00 AM,53.6,51.8,94,30.10,10.0,West,3.5,-,N/A,,Overcast,270,2013-07-25 12:00:00
5:53 AM,53.1,51.1,93,30.12,10.0,North,3.5,-,N/A,,Overcast,360,2013-07-25 12:53:00
6:53 AM,53.1,52.0,96,30.12,7.0,Calm,Calm,-,N/A,,Overcast,0,2013-07-25 13:53:00
7:53 AM,54.0,53.1,97,30.13,10.0,Calm,Calm,-,N/A,,Overcast,0,2013-07-25 14:53:00
8:53 AM,55.9,53.1,90,30.15,10.0,WSW,3.5,-,N/A,,Overcast,250,2013-07-25 15:53:00
9:53 AM,57.0,55.0,93,30.16,10.0,SSW,8.1,-,N/A,,Overcast,210,2013-07-25 16:53:00
10:00 AM,57.2,55.4,94,30.15,10.0,SSW,6.9,-,N/A,,Overcast,200,2013-07-25 17:00:00
10:41 AM,60.8,55.4,82,30.14,10.0,South,6.9,-,N/A,,Overcast,180,2013-07-25 17:41:00
10:53 AM,61.0,55.9,83,30.16,10.0,SSW,10.4,-,N/A,,Overcast,210,2013-07-25 17:53:00
11:39 AM,64.4,57.2,77,30.14,10.0,SW,10.4,-,N/A,,Mostly Cloudy,230,2013-07-25 18:39:00
11:53 AM,64.9,57.0,75,30.15,10.0,WSW,13.8,-,N/A,,Scattered Clouds,240,2013-07-25 18:53:00
12:53 PM,66.9,55.9,68,30.15,10.0,WSW,15.0,-,N/A,,Clear,250,2013-07-25 19:53:00
1:53 PM,68.0,55.9,65,30.15,10.0,SW,17.3,-,N/A,,Clear,230,2013-07-25 20:53:00
2:53 PM,68.0,55.0,63,30.14,10.0,WSW,13.8,-,N/A,,Clear,240,2013-07-25 21:53:00
3:53 PM,66.9,54.0,63,30.14,10.0,WSW,12.7,-,N/A,,Clear,250,2013-07-25 22:53:00
4:53 PM,66.0,55.0,68,30.14,10.0,SW,16.1,-,N/A,,Clear,230,2013-07-25 23:53:00
5:53 PM,64.9,54.0,68,30.13,10.0,SW,15.0,-,N/A,,Clear,220,2013-07-26 00:53:00
6:53 PM,64.9,53.1,65,30.12,10.0,SW,9.2,-,N/A,,Clear,230,2013-07-26 01:53:00
7:53 PM,62.1,52.0,70,30.12,10.0,WSW,10.4,-,N/A,,Clear,240,2013-07-26 02:53:00
8:53 PM,59.0,51.1,75,30.12,10.0,WSW,5.8,-,N/A,,Clear,250,2013-07-26 03:53:00
9:53 PM,55.9,50.0,80,30.13,10.0,WSW,3.5,-,N/A,,Clear,250,2013-07-26 04:53:00
10:53 PM,54.0,50.0,86,30.13,10.0,WSW,5.8,-,N/A,,Clear,250,2013-07-26 05:53:00
11:53 PM,53.1,50.0,89,30.14,10.0,Calm,Calm,-,N/A,,Clear,0,2013-07-26 06:53:00